Back to catalog

SL-14 DEB

AlivePO
NORAD 45337·DEBRIS·🇷🇺 Russia

Launched Aug 15, 1991 from Plesetsk Cosmodrome

Loading…

Next Passes (next 24 hours)

TLE

FreshSource: Space-Track

Epoch: Sep 14, 2026, 13:02 UTC

1 45337U 91056CB  26257.54346142  .00000815  00000-0  21975-2 0  9994
2 45337  82.5737  95.9458 0042824 110.8889 249.6824 13.13142192313088

Track SL-14 DEB in real time with AllMySat

Download on the App Store